Showing default

ICEYE-X6, 46497

Orbit data source: Space-Track

ICEYE-X6, 46497 is a payload satellite owned by ICEYE (FI) in SSO that was launched on Mon, 28 Sep 2020 UTC via a SOYUZ-2-1B launch vehicle from the Plesetsk Missile And Space Complex (PKMTR). Payloads include a variety of satellites, spacecraft, and rockets equipped with specific instruments for various scientific and technological missions. These include communications satellites like Starlink; space stations such as the ISS; scientific satellites like the Hubble; Earth observation satellites from companies like Planet Labs, Umbra, and HawkEye 360; GPS; miniature CubeSats for education and research; and military/defense satellites.

Loading next visibility...
ICEYE-X6 details
Identifier
46497, 2020-068M
Orbit
SSO
Last TLE update5 hours ago
Origin
Flag of FIICEYE (FI / FIN)
ManufacturerICEYE
MissionOperational Commercial Radar Imaging
Bus & MotorICEYE, Unknown motor
Mass80 kg wet, 80 kg dry
Launch date (UTC)
2020-09-28 (4 years ago)
Launch vehicle
SOYUZ-2-1B
Launch site
Plesetsk Missile And Space Complex (PKMTR)
Object type
Payload
Rocket body
Debris
Shape & HBRBox + 1 Pan, 3.25 m
Radar Cross Section1.837 m², Medium (>0.1 m² and < 1m²)

Expand to show TLE details & history

TLE from 5 hours ago
0 ICEYE-X6
1 46497U 20068M   24348.17639543  .00005177  00000-0  41339-3 0  9998
2 46497  98.0042 308.8638 0005593 119.2927 240.8855 15.00717742230511
Epoch: 2024-12-13T04:14Z
Definitive object data (Epoch: 2024-12-13T04:14:00.565Z)
Latitude-0.00005°
Longitude163.01532°
Altitude569.62 km
Speed7.575 km/s
True Right ascension20h 35m 27s
True Declination0° 00' 00"
Sunlit
Object was in daylight at TLE epoch
Visualization TLE readout
Latitude13.00949°
Longitude161.37211°
Altitude567.997 km
Speed7.578 km/s
Apparent Right ascension20h 06m 22s
Apparent Declination-12° 15' 03"
Sunlit
Object is in daylight
Visualization observer readout
Local Sidereal Time07:35:14
Azimuth343.898° N
Elevation-61.494°
Doppler factor1
Orbital elements
Apogee altitude565.581 km
Perigee altitude557.818 km
Semi-major axis6,939.837 km
Eccentricity0.0005593
Inclination98.0042°
RAAN308.8638°
Arg. of periapsis119.2927°
True anomaly240.82953°
Mean anomaly240.8855°
Eccentric anomaly240.85751°
Mean motion3.75422 °/min
BSTAR0.00041339
Orbital period95.89 mins
Loading maneuver chart data...
Loading historical data...
Loading historical data...
Loading historical data...
Loading historical data...
Loading historical data...
Loading historical data...
Loading historical data...

ICEYE-X6 Visibility forecast

Observer location: undefined°, undefined

Span
Click to sort rows by Start time (UTC) header in descending order
Start Az.
Max El. time (UTC)
Max El. Az.
Max El.
End time (UTC)
End Az.
5 mins2024-12-13 09:37:31.997Z56.14° ENE2024-12-13 09:39:31.997Z91.989° ESE18.861°2024-12-13 09:42:31.997Z142.186° SSE
5 mins2024-12-13 11:12:31.997Z336.311° NNW2024-12-13 11:14:31.997Z293.105° NW25.411°2024-12-13 11:17:31.997Z234.784° WSW
6 mins2024-12-13 21:58:31.997Z195.629° SSW2024-12-13 22:00:31.997Z252.098° W36.793°2024-12-13 22:04:31.997Z335.718° NNW
|